When you browse on this site, cookies collect data to enhance your experience and personalize the content and advertising you see.
Visit our Privacy Policy to learn more. By continuing to use the site, you agree to this use of cookies and data.
  • en Suisse
  • Liste des pays
  • À 7 jours
  • Température de l'eau
  • Carte satellitaire
  • Carte météo
  • Widgets météo
  • user-avatar
    Se connecter

    Météo par heure à Sevan

    Ce jour, 16 Juin, Dimanche

    Heure Température Précipitation Vent Pression Humidité
    00:00 +18°C° 0.2 mm 1 m/s 642 mmHg 69%
    01:00 +16°C° 0 mm 1 m/s 641 mmHg 69%
    02:00 +16°C° 0 mm 1 m/s 641 mmHg 68%
    03:00 +16°C° 0 mm 1 m/s 641 mmHg 68%
    04:00 +18°C° 0 mm 1 m/s 641 mmHg 67%
    05:00 +18°C° 0 mm 1 m/s 641 mmHg 66%
    06:00 +19°C° 0 mm 1 m/s 642 mmHg 66%
    07:00 +21°C° 0 mm 1 m/s 642 mmHg 61%
    08:00 +22°C° 0 mm 1 m/s 642 mmHg 56%
    09:00 +24°C° 0 mm 2 m/s 643 mmHg 51%
    10:00 +25°C° 0.1 mm 2 m/s 642 mmHg 48%
    11:00 +26°C° 0.1 mm 2 m/s 642 mmHg 44%
    12:00 +27°C° 0.1 mm 2 m/s 642 mmHg 41%
    13:00 +28°C° 0.1 mm 2 m/s 642 mmHg 39%
    14:00 +28°C° 0.1 mm 2 m/s 642 mmHg 37%
    15:00 +29°C° 0.1 mm 2 m/s 642 mmHg 36%
    16:00 +28°C° 0 mm 2 m/s 641 mmHg 41%
    17:00 +26°C° 0 mm 2 m/s 641 mmHg 47%
    18:00 +25°C° 0 mm 1 m/s 640 mmHg 52%
    19:00 +23°C° 0.1 mm 2 m/s 640 mmHg 54%
    20:00 +21°C° 0.1 mm 2 m/s 640 mmHg 56%
    21:00 +19°C° 0.1 mm 2 m/s 640 mmHg 57%
    22:00 +19°C° 0.2 mm 2 m/s 640 mmHg 58%
    23:00 +18°C° 0.2 mm 2 m/s 640 mmHg 59%

    Demain, 17 Juin, Lundi

    Heure Température Précipitation Vent Pression Humidité
    00:00 +18°C° 0.2 mm 2 m/s 640 mmHg 60%
    01:00 +18°C° 0 mm 2 m/s 640 mmHg 60%
    02:00 +17°C° 0 mm 2 m/s 639 mmHg 60%
    03:00 +18°C° 0 mm 1 m/s 639 mmHg 59%
    04:00 +19°C° 0 mm 1 m/s 639 mmHg 60%
    05:00 +20°C° 0 mm 1 m/s 640 mmHg 60%
    06:00 +21°C° 0 mm 1 m/s 640 mmHg 61%
    07:00 +22°C° 0 mm 1 m/s 640 mmHg 55%
    08:00 +24°C° 0 mm 1 m/s 641 mmHg 49%
    09:00 +26°C° 0 mm 1 m/s 641 mmHg 44%
    10:00 +27°C° 0.1 mm 2 m/s 641 mmHg 41%
    11:00 +28°C° 0.1 mm 2 m/s 641 mmHg 38%
    12:00 +29°C° 0.1 mm 2 m/s 641 mmHg 35%
    13:00 +28°C° 0.1 mm 2 m/s 641 mmHg 40%
    14:00 +26°C° 0.1 mm 3 m/s 640 mmHg 44%
    15:00 +25°C° 0.1 mm 3 m/s 640 mmHg 49%
    16:00 +24°C° 0.4 mm 3 m/s 640 mmHg 53%
    17:00 +22°C° 0.4 mm 3 m/s 640 mmHg 57%
    18:00 +22°C° 0.4 mm 3 m/s 640 mmHg 61%
    19:00 +20°C° 0.4 mm 3 m/s 640 mmHg 64%
    20:00 +19°C° 0.4 mm 3 m/s 640 mmHg 67%
    21:00 +18°C° 0.4 mm 3 m/s 641 mmHg 70%
    22:00 +18°C° 0.2 mm 2 m/s 640 mmHg 70%
    23:00 +17°C° 0.2 mm 2 m/s 640 mmHg 69%

    Après-demain, 18 Juin, Mardi

    Heure Température Précipitation Vent Pression Humidité
    00:00 +17°C° 0.2 mm 2 m/s 640 mmHg 69%
    01:00 +18°C° 0.1 mm 1 m/s 640 mmHg 70%
    02:00 +16°C° 0.1 mm 1 m/s 640 mmHg 70%
    03:00 +15°C° 0.1 mm 1 m/s 639 mmHg 71%
    04:00 +16°C° 0 mm 1 m/s 640 mmHg 69%
    05:00 +18°C° 0 mm 1 m/s 640 mmHg 67%
    06:00 +19°C° 0 mm 1 m/s 640 mmHg 66%
    07:00 +21°C° 0.1 mm 1 m/s 641 mmHg 61%
    08:00 +22°C° 0.1 mm 1 m/s 641 mmHg 56%
    09:00 +24°C° 0.1 mm 2 m/s 641 mmHg 51%
    10:00 +25°C° 0.2 mm 2 m/s 641 mmHg 48%
    11:00 +26°C° 0.2 mm 2 m/s 641 mmHg 44%
    12:00 +27°C° 0.2 mm 2 m/s 641 mmHg 41%
    13:00 +28°C° 0.1 mm 2 m/s 641 mmHg 39%
    14:00 +28°C° 0.1 mm 2 m/s 641 mmHg 37%
    15:00 +28°C° 0.1 mm 2 m/s 641 mmHg 36%
    16:00 +28°C° 0.2 mm 2 m/s 640 mmHg 41%
    17:00 +27°C° 0.2 mm 2 m/s 640 mmHg 46%
    18:00 +26°C° 0.2 mm 1 m/s 640 mmHg 51%
    19:00 +24°C° 0.3 mm 2 m/s 640 mmHg 56%
    20:00 +21°C° 0.3 mm 3 m/s 640 mmHg 62%
    21:00 +18°C° 0.3 mm 4 m/s 640 mmHg 68%
    22:00 +18°C° 0.3 mm 3 m/s 640 mmHg 69%
    23:00 +17°C° 0.3 mm 3 m/s 639 mmHg 71%

    19 Juin, Mercredi

    Heure Température Précipitation Vent Pression Humidité
    00:00 +17°C° 0.3 mm 2 m/s 639 mmHg 72%
    01:00 +16°C° 0.1 mm 2 m/s 639 mmHg 72%
    02:00 +16°C° 0.1 mm 2 m/s 639 mmHg 72%
    03:00 +16°C° 0.1 mm 2 m/s 639 mmHg 72%
    04:00 +18°C° 0 mm 1 m/s 639 mmHg 71%
    05:00 +18°C° 0 mm 1 m/s 640 mmHg 70%
    06:00 +19°C° 0 mm 1 m/s 640 mmHg 69%
    07:00 +21°C° 0.2 mm 1 m/s 640 mmHg 64%
    08:00 +22°C° 0.2 mm 1 m/s 641 mmHg 59%
    09:00 +24°C° 0.2 mm 1 m/s 641 mmHg 53%
    10:00 +25°C° 0.3 mm 1 m/s 641 mmHg 50%
    11:00 +26°C° 0.3 mm 2 m/s 641 mmHg 47%
    12:00 +27°C° 0.3 mm 2 m/s 641 mmHg 43%
    13:00 +27°C° 0.4 mm 2 m/s 641 mmHg 42%
    14:00 +28°C° 0.4 mm 2 m/s 641 mmHg 41%
    15:00 +28°C° 0.4 mm 2 m/s 640 mmHg 40%
    16:00 +27°C° 0.3 mm 2 m/s 640 mmHg 44%
    17:00 +26°C° 0.3 mm 2 m/s 640 mmHg 49%
    18:00 +26°C° 0.3 mm 2 m/s 640 mmHg 54%
    19:00 +24°C° 0.1 mm 2 m/s 640 mmHg 58%
    20:00 +21°C° 0.1 mm 2 m/s 640 mmHg 63%
    21:00 +19°C° 0.1 mm 2 m/s 640 mmHg 67%
    22:00 +18°C° 0.1 mm 2 m/s 640 mmHg 68%
    23:00 +18°C° 0.1 mm 2 m/s 640 mmHg 69%

    20 Juin, Jeudi

    Heure Température Précipitation Vent Pression Humidité
    00:00 +17°C° 0.1 mm 2 m/s 640 mmHg 70%
    01:00 +17°C° 0 mm 2 m/s 639 mmHg 70%
    02:00 +16°C° 0 mm 2 m/s 639 mmHg 71%
    03:00 +16°C° 0 mm 2 m/s 639 mmHg 71%
    04:00 +17°C° 0 mm 2 m/s 639 mmHg 70%
    05:00 +18°C° 0 mm 2 m/s 639 mmHg 69%
    06:00 +18°C° 0 mm 2 m/s 639 mmHg 68%
    07:00 +20°C° 0.3 mm 2 m/s 640 mmHg 63%
    08:00 +21°C° 0.3 mm 2 m/s 640 mmHg 58%
    09:00 +24°C° 0.3 mm 2 m/s 640 mmHg 54%
    10:00 +25°C° 0.8 mm 2 m/s 640 mmHg 51%
    11:00 +26°C° 0.8 mm 2 m/s 640 mmHg 49%
    12:00 +27°C° 0.8 mm 2 m/s 640 mmHg 47%
    13:00 +27°C° 0.8 mm 2 m/s 640 mmHg 46%
    14:00 +27°C° 0.8 mm 2 m/s 640 mmHg 45%
    15:00 +27°C° 0.8 mm 2 m/s 639 mmHg 44%
    16:00 +26°C° 0.3 mm 2 m/s 639 mmHg 48%
    17:00 +25°C° 0.3 mm 2 m/s 639 mmHg 53%
    18:00 +24°C° 0.3 mm 2 m/s 639 mmHg 57%
    19:00 +23°C° 0.5 mm 2 m/s 639 mmHg 62%
    20:00 +20°C° 0.5 mm 2 m/s 639 mmHg 67%
    21:00 +18°C° 0.5 mm 2 m/s 639 mmHg 73%
    22:00 +18°C° 0.4 mm 2 m/s 639 mmHg 73%
    23:00 +17°C° 0.4 mm 2 m/s 639 mmHg 74%

    21 Juin, Vendredi

    Heure Température Précipitation Vent Pression Humidité
    00:00 +17°C° 0.4 mm 2 m/s 639 mmHg 75%
    01:00 +16°C° 0.3 mm 2 m/s 639 mmHg 75%
    02:00 +16°C° 0.3 mm 2 m/s 639 mmHg 76%
    03:00 +16°C° 0.3 mm 1 m/s 639 mmHg 77%
    04:00 +18°C° 0.3 mm 1 m/s 639 mmHg 76%
    05:00 +18°C° 0.3 mm 1 m/s 639 mmHg 75%
    06:00 +19°C° 0.3 mm 1 m/s 640 mmHg 74%
    07:00 +20°C° 0.3 mm 1 m/s 640 mmHg 70%
    08:00 +20°C° 0.3 mm 2 m/s 640 mmHg 65%
    09:00 +23°C° 0.3 mm 2 m/s 640 mmHg 61%
    10:00 +24°C° 1 mm 2 m/s 641 mmHg 58%
    11:00 +25°C° 1 mm 2 m/s 641 mmHg 56%
    12:00 +26°C° 1 mm 2 m/s 641 mmHg 53%
    13:00 +26°C° 0.8 mm 3 m/s 641 mmHg 53%
    14:00 +26°C° 0.8 mm 3 m/s 641 mmHg 53%
    15:00 +26°C° 0.8 mm 4 m/s 641 mmHg 54%
    16:00 +25°C° 0.2 mm 4 m/s 641 mmHg 57%
    17:00 +23°C° 0.2 mm 4 m/s 641 mmHg 61%
    18:00 +22°C° 0.2 mm 5 m/s 641 mmHg 65%
    19:00 +21°C° 0.2 mm 4 m/s 641 mmHg 69%
    20:00 +19°C° 0.2 mm 4 m/s 641 mmHg 74%
    21:00 +17°C° 0.2 mm 4 m/s 641 mmHg 79%
    22:00 +17°C° 0.2 mm 4 m/s 641 mmHg 80%
    23:00 +17°C° 0.2 mm 3 m/s 641 mmHg 81%
    Voir plus